| time (UTC) | temp F | wind direction | speed knots | gust knots | rain 1hr in | rain 24hr in | rain mn in | humidity % | barometer mb |
| 20260503020534 | 56 | 278 | 13.0 | 32.2 | 0.00 | 0.00 | 0.00 | 58 | 1017.3 |
| 20260503020035 | 58 | 297 | 22.6 | 32.2 | 0.00 | 0.00 | 0.00 | 58 | 1016.7 |
| 20260503015528 | 61 | 316 | 17.4 | 22.6 | 0.00 | 0.00 | 0.00 | 46 | 1016.4 |
| 20260503015029 | 63 | 325 | 4.3 | 8.7 | 0.00 | 0.00 | 0.00 | 39 | 1016.2 |
| 20260503014528 | 64 | 313 | 0.0 | 7.8 | 0.00 | 0.00 | 0.00 | 37 | 1015.9 |
| 20260503014029 | 64 | 90 | 1.7 | 6.1 | 0.00 | 0.00 | 0.00 | 37 | 1015.8 |
| 20260503013528 | 64 | 67 | 2.6 | 4.3 | 0.00 | 0.00 | 0.00 | 37 | 1015.7 |
| 20260503013028 | 64 | 59 | 0.0 | 4.3 | 0.00 | 0.00 | 0.00 | 37 | 1015.7 |
| 20260503012527 | 65 | 24 | 2.6 | 4.3 | 0.00 | 0.00 | 0.00 | 36 | 1015.7 |
| 20260503012028 | 65 | 355 | 1.7 | 4.3 | 0.00 | 0.00 | 0.00 | 36 | 1015.6 |
| 20260503011527 | 66 | 67 | 2.6 | 4.3 | 0.00 | 0.00 | 0.00 | 36 | 1015.7 |
| 20260503011026 | 66 | 78 | 1.7 | 4.3 | 0.00 | 0.00 | 0.00 | 36 | 1015.7 |
| 20260503010525 | 66 | 74 | 1.7 | 4.3 | 0.00 | 0.00 | 0.00 | 36 | 1015.8 |
| 20260503010025 | 65 | 77 | 1.7 | 4.3 | 0.00 | 0.00 | 0.00 | 36 | 1015.8 |
| 20260503005525 | 65 | 360 | 1.7 | 5.2 | 0.00 | 0.00 | 0.00 | 37 | 1015.8 |
| 20260503005025 | 65 | 61 | 2.6 | 8.7 | 0.00 | 0.00 | 0.00 | 37 | 1015.8 |
| 20260503004524 | 65 | 21 | 2.6 | 8.7 | 0.00 | 0.00 | 0.00 | 37 | 1015.9 |
| 20260503004024 | 65 | 36 | 3.5 | 10.4 | 0.00 | 0.00 | 0.00 | 38 | 1016.0 |
| 20260503003524 | 65 | 28 | 5.2 | 10.4 | 0.00 | 0.00 | 0.00 | 38 | 1015.9 |
| 20260503003031 | 65 | 9 | 5.2 | 11.3 | 0.00 | 0.00 | 0.00 | 38 | 1015.9 |
| 20260503002524 | 66 | 55 | 3.5 | 11.3 | 0.00 | 0.00 | 0.00 | 36 | 1016.0 |
| 20260503002023 | 66 | 80 | 3.5 | 7.0 | 0.00 | 0.00 | 0.00 | 35 | 1015.9 |
| 20260503001523 | 67 | 66 | 2.6 | 5.2 | 0.00 | 0.00 | 0.00 | 35 | 1015.9 |
| 20260503001022 | 67 | 324 | 2.6 | 7.8 | 0.00 | 0.00 | 0.00 | 35 | 1015.9 |
| 20260503000523 | 67 | 324 | 2.6 | 4.3 | 0.00 | 0.00 | 0.00 | 36 | 1016.0 |
| 20260503000028 | 67 | 275 | 1.7 | 5.2 | 0.00 | 0.00 | 0.00 | 35 | 1015.8 |
| 20260502235519 | 66 | 294 | 1.7 | 7.0 | 0.00 | 0.00 | 0.00 | 36 | 1016.0 |
| 20260502235018 | 65 | 193 | 0.9 | 10.4 | 0.00 | 0.00 | 0.00 | 37 | 1016.1 |
| 20260502234534 | 65 | 349 | 2.6 | 13.9 | 0.00 | 0.00 | 0.00 | 38 | 1016.2 |
| 20260502234016 | 66 | 314 | 10.4 | 13.9 | 0.00 | 0.00 | 0.00 | 38 | 1016.4 |
| 20260502233516 | 66 | 323 | 6.1 | 11.3 | 0.00 | 0.00 | 0.00 | 37 | 1016.6 |
| 20260502233014 | 65 | 287 | 7.0 | 13.0 | 0.00 | 0.00 | 0.00 | 37 | 1016.7 |
| 20260502232514 | 65 | 321 | 6.1 | 13.0 | 0.00 | 0.00 | 0.00 | 38 | 1016.8 |
| 20260502232013 | 65 | 294 | 7.8 | 13.0 | 0.00 | 0.00 | 0.00 | 37 | 1016.8 |
| 20260502231513 | 65 | 289 | 5.2 | 7.8 | 0.00 | 0.00 | 0.00 | 36 | 1016.9 |
| 20260502231015 | 64 | 288 | 4.3 | 6.1 | 0.00 | 0.00 | 0.00 | 37 | 1016.9 |
| 20260502230514 | 64 | 264 | 3.5 | 6.1 | 0.00 | 0.00 | 0.00 | 36 | 1017.0 |
| 20260502230012 | 64 | 238 | 2.6 | 6.1 | 0.00 | 0.00 | 0.00 | 37 | 1016.9 |
| 20260502225512 | 64 | 267 | 3.5 | 5.2 | 0.00 | 0.00 | 0.00 | 37 | 1016.9 |
| 20260502225011 | 64 | 237 | 3.5 | 5.2 | 0.00 | 0.00 | 0.00 | 37 | 1016.9 |
| 20260502224512 | 64 | 194 | 2.6 | 7.8 | 0.00 | 0.00 | 0.00 | 36 | 1017.0 |
| 20260502224017 | 65 | 188 | 4.3 | 7.8 | 0.00 | 0.00 | 0.00 | 36 | 1017.0 |
| 20260502223511 | 65 | 213 | 5.2 | 7.0 | 0.00 | 0.00 | 0.00 | 36 | 1017.0 |
| 20260502223031 | 66 | 230 | 1.7 | 6.1 | 0.00 | 0.00 | 0.00 | 36 | 1017.1 |
| 20260502222511 | 66 | 355 | 0.0 | 7.0 | 0.00 | 0.00 | 0.00 | 36 | 1017.1 |
| 20260502222012 | 66 | 266 | 3.5 | 11.3 | 0.00 | 0.00 | 0.00 | 36 | 1017.1 |
| 20260502221510 | 66 | 216 | 5.2 | 11.3 | 0.00 | 0.00 | 0.00 | 36 | 1017.2 |
| 20260502221015 | 66 | 254 | 7.0 | 8.7 | 0.00 | 0.00 | 0.00 | 36 | 1017.3 |
| 20260502220510 | 66 | 277 | 1.7 | 7.0 | 0.00 | 0.00 | 0.00 | 36 | 1017.4 |
| 20260502220010 | 66 | 315 | 4.3 | 7.0 | 0.00 | 0.00 | 0.00 | 37 | 1017.6 |
| 20260502215508 | 65 | 281 | 2.6 | 5.2 | 0.00 | 0.00 | 0.00 | 37 | 1017.6 |
| 20260502215009 | 65 | 198 | 2.6 | 5.2 | 0.00 | 0.00 | 0.00 | 37 | 1017.8 |
| 20260502214509 | 64 | 154 | 1.7 | 7.8 | 0.00 | 0.00 | 0.00 | 38 | 1017.7 |
| 20260502214014 | 64 | 19 | 3.5 | 7.8 | 0.00 | 0.00 | 0.00 | 38 | 1018.0 |
| 20260502213508 | 64 | 21 | 3.5 | 8.7 | 0.00 | 0.00 | 0.00 | 38 | 1017.9 |
| 20260502213007 | 64 | 15 | 2.6 | 10.4 | 0.00 | 0.00 | 0.00 | 38 | 1018.1 |
| 20260502212507 | 64 | 69 | 0.9 | 10.4 | 0.00 | 0.00 | 0.00 | 38 | 1018.2 |
| 20260502212008 | 64 | 101 | 2.6 | 7.8 | 0.00 | 0.00 | 0.00 | 38 | 1018.3 |
| 20260502211507 | 64 | 110 | 5.2 | 7.8 | 0.00 | 0.00 | 0.00 | 38 | 1018.4 |
| 20260502211007 | 64 | 88 | 3.5 | 7.8 | 0.00 | 0.00 | 0.00 | 39 | 1018.5 |
| 20260502210511 | 64 | 55 | 2.6 | 8.7 | 0.00 | 0.00 | 0.00 | 39 | 1018.6 |
| 20260502210007 | 64 | 37 | 3.5 | 8.7 | 0.00 | 0.00 | 0.00 | 39 | 1018.6 |
| 20260502205508 | 64 | 360 | 2.6 | 9.6 | 0.00 | 0.00 | 0.00 | 39 | 1018.7 |
| 20260502205006 | 64 | 45 | 6.1 | 9.6 | 0.00 | 0.00 | 0.00 | 39 | 1018.7 |
| 20260502204508 | 64 | 305 | 2.6 | 7.8 | 0.00 | 0.00 | 0.00 | 40 | 1018.8 |
| 20260502204006 | 64 | 321 | 3.5 | 7.8 | 0.00 | 0.00 | 0.00 | 39 | 1018.9 |
| 20260502203506 | 64 | 30 | 2.6 | 14.8 | 0.00 | 0.00 | 0.00 | 39 | 1018.8 |
| 20260502203005 | 65 | 132 | 3.5 | 9.6 | 0.00 | 0.00 | 0.00 | 38 | 1019.0 |
| 20260502202506 | 65 | 355 | 1.7 | 8.7 | 0.00 | 0.00 | 0.00 | 38 | 1019.0 |
| 20260502202004 | 65 | 129 | 0.9 | 8.7 | 0.00 | 0.00 | 0.00 | 38 | 1019.0 |
| 20260502201504 | 64 | 38 | 2.6 | 7.8 | 0.00 | 0.00 | 0.00 | 39 | 1019.0 |
| 20260502201004 | 65 | 30 | 3.5 | 8.7 | 0.00 | 0.00 | 0.00 | 39 | 1019.1 |
| 20260502200503 | 64 | 5 | 1.7 | 8.7 | 0.00 | 0.00 | 0.00 | 40 | 1019.1 |
| 20260502200003 | 64 | 45 | 0.9 | 7.0 | 0.00 | 0.00 | 0.00 | 40 | 1019.1 |
| 20260502195502 | 63 | 246 | 2.6 | 8.7 | 0.00 | 0.00 | 0.00 | 40 | 1019.2 |
| 20260502195002 | 63 | 262 | 4.3 | 8.7 | 0.00 | 0.00 | 0.00 | 40 | 1019.2 |
| 20260502194501 | 63 | 355 | 0.9 | 7.0 | 0.00 | 0.00 | 0.00 | 41 | 1019.2 |
| 20260502194100 | 62 | 285 | 2.6 | 7.8 | 0.00 | 0.00 | 0.00 | 42 | 1019.2 |
| 20260502193600 | 62 | 281 | 4.3 | 7.8 | 0.00 | 0.00 | 0.00 | 41 | 1019.3 |
| 20260502193501 | 63 | 284 | 3.5 | 7.8 | 0.00 | 0.00 | 0.00 | 41 | 1019.3 |
| 20260502193100 | 63 | 317 | 1.7 | 4.3 | 0.00 | 0.00 | 0.00 | 41 | 1019.5 |
| 20260502192559 | 62 | 301 | 1.7 | 9.6 | 0.00 | 0.00 | 0.00 | 42 | 1019.5 |
| 20260502192059 | 62 | 256 | 4.3 | 9.6 | 0.00 | 0.00 | 0.00 | 41 | 1019.7 |
| 20260502191603 | 62 | 329 | 5.2 | 8.7 | 0.00 | 0.00 | 0.00 | 41 | 1019.7 |
| 20260502191059 | 62 | 304 | 2.6 | 4.3 | 0.00 | 0.00 | 0.00 | 42 | 1019.6 |
| 20260502190559 | 62 | 104 | 0.0 | 6.1 | 0.00 | 0.00 | 0.00 | 42 | 1019.7 |
| 20260502190059 | 62 | 119 | 3.5 | 6.1 | 0.00 | 0.00 | 0.00 | 41 | 1019.7 |
| 20260502185602 | 62 | 84 | 1.7 | 5.2 | 0.00 | 0.00 | 0.00 | 41 | 1019.8 |
| 20260502185058 | 61 | 81 | 0.0 | 1.7 | 0.00 | 0.00 | 0.00 | 42 | 1019.8 |
| 20260502184558 | 61 | 57 | 0.0 | 4.3 | 0.00 | 0.00 | 0.00 | 43 | 1019.9 |
| 20260502184058 | 61 | 57 | 0.9 | 7.0 | 0.00 | 0.00 | 0.00 | 43 | 1019.9 |
| 20260502183558 | 61 | 100 | 2.6 | 6.1 | 0.00 | 0.00 | 0.00 | 42 | 1019.9 |
| 20260502183107 | 61 | 65 | 3.5 | 6.1 | 0.00 | 0.00 | 0.00 | 43 | 1019.9 |
| 20260502182600 | 61 | 149 | 0.0 | 5.2 | 0.00 | 0.00 | 0.00 | 42 | 1020.0 |
| 20260502182057 | 61 | 80 | 1.7 | 5.2 | 0.00 | 0.00 | 0.00 | 41 | 1020.0 |
| 20260502181558 | 62 | 11 | 1.7 | 8.7 | 0.00 | 0.00 | 0.00 | 41 | 1020.0 |
| 20260502181057 | 63 | 301 | 5.2 | 8.7 | 0.00 | 0.00 | 0.00 | 40 | 1020.1 |
| 20260502180557 | 63 | 27 | 1.7 | 3.5 | 0.00 | 0.00 | 0.00 | 41 | 1020.0 |
| 20260502164046 | 60 | 355 | 3.5 | 7.8 | 0.00 | 0.00 | 0.00 | 45 | 1020.4 |
| 20260502163542 | 59 | 348 | 0.9 | 7.0 | 0.00 | 0.00 | 0.00 | 46 | 1020.5 |
| 20260502163054 | 59 | 275 | 1.7 | 7.8 | 0.00 | 0.00 | 0.00 | 46 | 1020.6 |
| 20260502162542 | 58 | 5 | 2.6 | 7.8 | 0.00 | 0.00 | 0.00 | 47 | 1020.6 |
| 20260502162042 | 58 | 305 | 2.6 | 7.8 | 0.00 | 0.00 | 0.00 | 48 | 1020.6 |
| 20260502161555 | 58 | 254 | 1.7 | 9.6 | 0.00 | 0.00 | 0.00 | 48 | 1020.8 |
| 20260502161040 | 58 | 324 | 4.3 | 9.6 | 0.00 | 0.00 | 0.00 | 48 | 1020.7 |
| 20260502160540 | 58 | 262 | 2.6 | 7.0 | 0.00 | 0.00 | 0.00 | 48 | 1020.7 |
| 20260502152036 | 56 | 324 | 6.1 | 10.4 | 0.00 | 0.00 | 0.00 | 51 | 1020.7 |
| 20260502151538 | 56 | 325 | 6.1 | 10.4 | 0.00 | 0.00 | 0.00 | 51 | 1020.7 |
| 20260502151035 | 55 | 320 | 7.0 | 10.4 | 0.00 | 0.00 | 0.00 | 52 | 1020.7 |
| 20260502150535 | 55 | 319 | 7.8 | 11.3 | 0.00 | 0.00 | 0.00 | 52 | 1020.7 |
| 20260502130517 | 47 | 349 | 3.5 | 7.8 | 0.00 | 0.00 | 0.00 | 62 | 1020.5 |
| 20260502123507 | 48 | 319 | 5.2 | 10.4 | 0.00 | 0.00 | 0.00 | 60 | 1020.4 |
| 20260502123008 | 48 | 334 | 7.0 | 10.4 | 0.00 | 0.00 | 0.00 | 61 | 1020.3 |
| 20260502122505 | 48 | 332 | 6.1 | 9.6 | 0.00 | 0.00 | 0.00 | 61 | 1020.3 |
| 20260502122006 | 48 | 318 | 6.1 | 8.7 | 0.00 | 0.00 | 0.00 | 61 | 1020.4 |
| 20260502121504 | 48 | 343 | 6.1 | 10.4 | 0.00 | 0.00 | 0.00 | 61 | 1020.5 |
| 20260502121003 | 48 | 319 | 7.8 | 11.3 | 0.00 | 0.00 | 0.00 | 60 | 1020.5 |
| 20260502120503 | 49 | 327 | 6.1 | 11.3 | 0.00 | 0.00 | 0.00 | 59 | 1020.4 |
| 20260502120120 | 49 | 350 | 5.2 | 11.3 | 0.00 | 0.00 | 0.00 | 59 | 1020.3 |
| 20260502115600 | 49 | 349 | 7.8 | 12.2 | 0.00 | 0.00 | 0.00 | 58 | 1020.2 |
| 20260502115059 | 49 | 329 | 8.7 | 12.2 | 0.00 | 0.00 | 0.00 | 58 | 1020.2 |
| 20260502114605 | 50 | 320 | 8.7 | 11.3 | 0.00 | 0.00 | 0.00 | 58 | 1020.2 |
| 20260502114058 | 50 | 323 | 7.8 | 12.2 | 0.00 | 0.00 | 0.00 | 58 | 1020.3 |
| 20260502113557 | 50 | 326 | 9.6 | 13.9 | 0.00 | 0.00 | 0.00 | 58 | 1020.2 |
| 20260502113118 | 50 | 325 | 9.6 | 13.9 | 0.00 | 0.00 | 0.00 | 57 | 1020.3 |
| 20260502112555 | 50 | 338 | 7.0 | 13.9 | 0.00 | 0.00 | 0.00 | 57 | 1020.0 |
| 20260502112055 | 50 | 332 | 7.8 | 14.8 | 0.00 | 0.00 | 0.00 | 57 | 1020.0 |
| 20260502111555 | 50 | 334 | 9.6 | 15.6 | 0.00 | 0.00 | 0.00 | 57 | 1019.9 |
| 20260502111057 | 50 | 343 | 10.4 | 17.4 | 0.00 | 0.00 | 0.00 | 56 | 1019.7 |
| 20260502110554 | 50 | 336 | 11.3 | 17.4 | 0.00 | 0.00 | 0.00 | 56 | 1019.7 |
| 20260502110054 | 50 | 337 | 10.4 | 20.0 | 0.00 | 0.00 | 0.00 | 56 | 1019.7 |
| 20260502105552 | 50 | 338 | 12.2 | 20.9 | 0.00 | 0.00 | 0.00 | 56 | 1019.6 |
| 20260502105051 | 50 | 351 | 14.8 | 21.7 | 0.00 | 0.00 | 0.00 | 55 | 1019.4 |
| 20260502104048 | 51 | 326 | 17.4 | 23.5 | 0.00 | 0.00 | 0.00 | 53 | 1019.0 |
| 20260502103549 | 51 | 341 | 12.2 | 25.2 | 0.00 | 0.00 | 0.00 | 53 | 1018.8 |
| 20260502103045 | 52 | 334 | 17.4 | 25.2 | 0.00 | 0.00 | 0.00 | 52 | 1018.6 |
| 20260502102544 | 52 | 329 | 13.9 | 27.8 | 0.00 | 0.00 | 0.00 | 52 | 1018.5 |
| 20260502102044 | 52 | 327 | 17.4 | 27.8 | 0.00 | 0.00 | 0.00 | 52 | 1018.3 |
| 20260502101545 | 51 | 340 | 18.2 | 26.9 | 0.00 | 0.00 | 0.00 | 53 | 1018.2 |
| 20260502101042 | 51 | 331 | 16.5 | 26.9 | 0.00 | 0.00 | 0.00 | 53 | 1018.1 |
| 20260502100542 | 51 | 330 | 18.2 | 26.1 | 0.00 | 0.00 | 0.00 | 53 | 1018.1 |
| 20260502091034 | 51 | 345 | 12.2 | 19.1 | 0.00 | 0.00 | 0.00 | 50 | 1017.6 |
| 20260502090534 | 51 | 327 | 10.4 | 17.4 | 0.00 | 0.00 | 0.00 | 50 | 1017.5 |
| 20260502071519 | 60 | 269 | 11.3 | 16.5 | 0.00 | 0.00 | 0.00 | 34 | 1017.3 |
| 20260502071019 | 60 | 278 | 11.3 | 15.6 | 0.00 | 0.00 | 0.00 | 35 | 1017.2 |
| 20260502070519 | 60 | 284 | 10.4 | 15.6 | 0.00 | 0.00 | 0.00 | 35 | 1017.2 |
| 20260502070021 | 60 | 293 | 10.4 | 13.9 | 0.00 | 0.00 | 0.00 | 35 | 1017.2 |
| 20260502065519 | 60 | 300 | 11.3 | 15.6 | 0.00 | 0.00 | 0.00 | 34 | 1017.2 |
| 20260502065017 | 60 | 302 | 11.3 | 15.6 | 0.00 | 0.00 | 0.00 | 33 | 1017.3 |
| 20260502064517 | 61 | 299 | 10.4 | 13.9 | 0.00 | 0.00 | 0.00 | 33 | 1017.2 |
| 20260502064015 | 59 | 278 | 10.4 | 13.9 | 0.00 | 0.00 | 0.00 | 36 | 1017.1 |
| 20260502063515 | 53 | 288 | 4.3 | 7.8 | 0.00 | 0.00 | 0.00 | 41 | 1017.2 |
| 20260502063015 | 54 | 230 | 3.5 | 9.6 | 0.00 | 0.00 | 0.00 | 41 | 1017.3 |
| 20260502062515 | 54 | 227 | 6.1 | 9.6 | 0.00 | 0.00 | 0.00 | 41 | 1017.1 |
| 20260502062012 | 53 | 222 | 6.1 | 9.6 | 0.00 | 0.00 | 0.00 | 42 | 1017.2 |
| 20260502061511 | 54 | 227 | 7.0 | 12.2 | 0.00 | 0.00 | 0.00 | 42 | 1017.1 |
| 20260502061010 | 53 | 221 | 7.8 | 12.2 | 0.00 | 0.00 | 0.00 | 43 | 1017.2 |
| 20260502060513 | 52 | 220 | 5.2 | 7.8 | 0.00 | 0.00 | 0.00 | 43 | 1017.2 |
| 20260502060008 | 52 | 224 | 5.2 | 7.8 | 0.00 | 0.00 | 0.00 | 43 | 1017.1 |
| 20260502055508 | 52 | 226 | 6.1 | 8.7 | 0.00 | 0.00 | 0.00 | 43 | 1017.0 |
| 20260502055008 | 52 | 213 | 5.2 | 7.8 | 0.00 | 0.00 | 0.00 | 43 | 1017.0 |
| 20260502054507 | 52 | 221 | 5.2 | 7.8 | 0.00 | 0.00 | 0.00 | 43 | 1017.0 |
| 20260502054008 | 52 | 223 | 5.2 | 7.8 | 0.00 | 0.00 | 0.00 | 42 | 1017.1 |
| 20260502053507 | 52 | 211 | 5.2 | 7.8 | 0.00 | 0.00 | 0.00 | 41 | 1017.1 |
| 20260502053007 | 53 | 227 | 5.2 | 7.8 | 0.00 | 0.00 | 0.00 | 41 | 1017.0 |
| 20260502052507 | 53 | 226 | 6.1 | 7.8 | 0.00 | 0.00 | 0.00 | 41 | 1017.0 |
| 20260502052008 | 53 | 215 | 5.2 | 7.8 | 0.00 | 0.00 | 0.00 | 40 | 1017.0 |
| 20260502051506 | 53 | 225 | 5.2 | 7.8 | 0.00 | 0.00 | 0.00 | 41 | 1017.0 |
| 20260502051006 | 53 | 238 | 3.5 | 7.0 | 0.00 | 0.00 | 0.00 | 40 | 1017.0 |
| 20260502050506 | 54 | 234 | 4.3 | 7.0 | 0.00 | 0.00 | 0.00 | 39 | 1017.0 |
| 20260502050008 | 54 | 229 | 5.2 | 8.7 | 0.00 | 0.00 | 0.00 | 39 | 1017.0 |
| 20260502045506 | 54 | 228 | 6.1 | 7.0 | 0.00 | 0.00 | 0.00 | 38 | 1017.0 |
| 20260502045106 | 55 | 224 | 5.2 | 8.7 | 0.00 | 0.00 | 0.00 | 37 | 1016.9 |
| 20260502044505 | 56 | 245 | 7.0 | 10.4 | 0.00 | 0.00 | 0.00 | 37 | 1017.0 |
| 20260502044004 | 56 | 252 | 7.8 | 10.4 | 0.00 | 0.00 | 0.00 | 37 | 1017.0 |
| 20260502043504 | 54 | 241 | 7.0 | 9.6 | 0.00 | 0.00 | 0.00 | 37 | 1017.1 |
| 20260502043004 | 55 | 223 | 5.2 | 8.7 | 0.00 | 0.00 | 0.00 | 36 | 1017.0 |
| 20260502042504 | 56 | 234 | 5.2 | 8.7 | 0.00 | 0.00 | 0.00 | 35 | 1017.0 |
| 20260502042005 | 56 | 234 | 6.1 | 7.8 | 0.00 | 0.00 | 0.00 | 35 | 1016.9 |
| 20260502041504 | 57 | 213 | 5.2 | 8.7 | 0.00 | 0.00 | 0.00 | 34 | 1017.0 |
| 20260502041004 | 57 | 229 | 5.2 | 7.8 | 0.00 | 0.00 | 0.00 | 34 | 1017.0 |
| 20260502040503 | 57 | 238 | 3.5 | 7.0 | 0.00 | 0.00 | 0.00 | 33 | 1017.1 |
| 20260502040004 | 57 | 216 | 3.5 | 7.0 | 0.00 | 0.00 | 0.00 | 33 | 1017.2 |
| 20260502035505 | 57 | 238 | 3.5 | 6.1 | 0.00 | 0.00 | 0.00 | 33 | 1017.2 |
| 20260502035003 | 57 | 241 | 1.7 | 3.5 | 0.00 | 0.00 | 0.00 | 33 | 1017.1 |
| 20260502034503 | 57 | 250 | 2.6 | 4.3 | 0.00 | 0.00 | 0.00 | 32 | 1017.1 |
| 20260502034003 | 57 | 242 | 3.5 | 6.1 | 0.00 | 0.00 | 0.00 | 31 | 1017.0 |
| 20260502033502 | 58 | 227 | 2.6 | 7.8 | 0.00 | 0.00 | 0.00 | 30 | 1017.0 |
| 20260502033002 | 58 | 250 | 6.1 | 7.8 | 0.00 | 0.00 | 0.00 | 31 | 1016.9 |
| 20260502032503 | 58 | 227 | 3.5 | 6.1 | 0.00 | 0.00 | 0.00 | 30 | 1017.0 |
| 20260502032002 | 58 | 264 | 4.3 | 7.0 | 0.00 | 0.00 | 0.00 | 30 | 1017.0 |
| 20260502031502 | 59 | 253 | 3.5 | 9.6 | 0.00 | 0.00 | 0.00 | 29 | 1016.9 |
| 20260502031002 | 59 | 239 | 6.1 | 9.6 | 0.00 | 0.00 | 0.00 | 29 | 1016.9 |
| 20260502030500 | 59 | 227 | 5.2 | 7.8 | 0.00 | 0.00 | 0.00 | 29 | 1016.9 |
| 20260502030002 | 59 | 218 | 4.3 | 6.1 | 0.00 | 0.00 | 0.00 | 27 | 1016.8 |
| 20260502025501 | 61 | 216 | 4.3 | 7.8 | 0.00 | 0.00 | 0.00 | 27 | 1016.7 |
| 20260502025001 | 61 | 227 | 5.2 | 8.7 | 0.00 | 0.00 | 0.00 | 26 | 1016.6 |
| 20260502024502 | 62 | 213 | 5.2 | 8.7 | 0.00 | 0.00 | 0.00 | 26 | 1016.6 |
| 20260502024100 | 61 | 226 | 5.2 | 7.0 | 0.00 | 0.00 | 0.00 | 25 | 1016.6 |
| 20260502023559 | 63 | 211 | 3.5 | 8.7 | 0.00 | 0.00 | 0.00 | 24 | 1016.6 |
| 20260502023100 | 64 | 236 | 5.2 | 9.6 | 0.00 | 0.00 | 0.00 | 24 | 1016.5 |
| 20260502022600 | 65 | 257 | 7.0 | 11.3 | 0.00 | 0.00 | 0.00 | 23 | 1016.4 |
| 20260502022058 | 66 | 246 | 7.8 | 11.3 | 0.00 | 0.00 | 0.00 | 22 | 1016.4 |
| 20260502021559 | 67 | 265 | 8.7 | 12.2 | 0.00 | 0.00 | 0.00 | 22 | 1016.3 |
| 20260502021101 | 67 | 251 | 8.7 | 13.0 | 0.00 | 0.00 | 0.00 | 21 | 1016.4 |